Time,TemperatureF,DewpointF,PressureIn,WindDirection,WindDirectionDegrees,WindSpeedMPH,WindSpeedGustMPH,Humidity,HourlyPrecipIn,Conditions,Clouds,dailyrainin,SoftwareType,DateUTC
2013-01-20 00:00:00,2.4,-3.7,29.40,SW,225,0.0,8.5,75,0.00,,,-99.99,VWS V12.07,2013-01-20 06:00:00,
2013-01-20 00:05:00,2.3,-3.5,29.41,SW,225,0.0,0.0,76,0.00,,,-99.99,VWS V12.07,2013-01-20 06:05:00,
2013-01-20 00:10:00,2.3,-3.5,29.41,North,0,1.7,1.7,76,0.00,,,-99.99,VWS V12.07,2013-01-20 06:10:00,
2013-01-20 00:15:00,2.3,-3.5,29.41,SSW,202,2.4,2.4,76,0.00,,,-99.99,VWS V12.07,2013-01-20 06:15:00,
2013-01-20 00:20:00,2.3,-3.5,29.41,WSW,248,0.0,2.4,76,0.00,,,-99.99,VWS V12.07,2013-01-20 06:20:00,
2013-01-20 00:25:00,2.1,-3.7,29.42,WSW,248,0.0,2.4,76,0.00,,,-99.99,VWS V12.07,2013-01-20 06:25:00,
2013-01-20 00:35:00,2.1,-3.4,29.42,West,270,1.1,1.1,77,0.00,,,-99.99,VWS V12.07,2013-01-20 06:35:00,
2013-01-20 00:40:00,1.9,-3.6,29.42,NW,315,0.0,1.3,77,0.00,,,-99.99,VWS V12.07,2013-01-20 06:40:00,
2013-01-20 00:45:00,2.1,-3.4,29.42,NNE,22,1.5,1.5,77,0.00,,,-99.99,VWS V12.07,2013-01-20 06:45:00,
2013-01-20 00:50:00,2.1,-3.4,29.43,West,270,0.0,1.5,77,0.00,,,-99.99,VWS V12.07,2013-01-20 06:50:00,
2013-01-20 00:55:00,2.1,-3.4,29.42,WNW,292,0.0,1.5,77,0.00,,,-99.99,VWS V12.07,2013-01-20 06:55:00,
2013-01-20 01:00:00,2.3,-3.2,29.43,West,270,3.3,4.9,77,0.00,,,-99.99,VWS V12.07,2013-01-20 07:00:00,
2013-01-20 01:05:00,2.3,-3.0,29.44,SW,225,0.0,3.3,78,0.00,,,-99.99,VWS V12.07,2013-01-20 07:05:00,
2013-01-20 01:10:00,2.4,-2.9,29.45,NE,45,2.4,4.6,78,0.00,,,-99.99,VWS V12.07,2013-01-20 07:10:00,
2013-01-20 01:15:00,2.6,-2.7,29.45,West,270,0.0,4.6,78,0.00,,,-99.99,VWS V12.07,2013-01-20 07:15:00,
2013-01-20 01:20:00,2.8,-2.5,29.46,NNE,22,2.0,2.0,78,0.00,,,-99.99,VWS V12.07,2013-01-20 07:20:00,
2013-01-20 01:25:00,2.8,-2.5,29.46,WSW,248,5.3,5.3,78,0.00,,,-99.99,VWS V12.07,2013-01-20 07:25:00,
2013-01-20 01:30:00,3.0,-2.3,29.47,WNW,292,0.0,5.3,78,0.00,,,-99.99,VWS V12.07,2013-01-20 07:30:00,
2013-01-20 01:35:00,3.0,-2.3,29.47,NNW,338,1.3,1.3,78,0.00,,,-99.99,VWS V12.07,2013-01-20 07:35:00,
2013-01-20 01:40:00,3.0,-2.3,29.47,West,270,2.6,2.6,78,0.00,,,-99.99,VWS V12.07,2013-01-20 07:40:00,
2013-01-20 01:45:00,3.2,-2.1,29.47,NNW,338,0.0,2.6,78,0.00,,,-99.99,VWS V12.07,2013-01-20 07:45:00,
2013-01-20 01:50:00,3.3,-2.0,29.48,NW,315,0.8,2.0,78,0.00,,,-99.99,VWS V12.07,2013-01-20 07:50:00,
2013-01-20 01:55:00,3.3,-2.0,29.48,West,270,0.0,2.0,78,0.00,,,-99.99,VWS V12.07,2013-01-20 07:55:00,
2013-01-20 02:00:00,3.3,-2.0,29.49,WNW,292,2.4,3.1,78,0.00,,,-99.99,VWS V12.07,2013-01-20 08:00:00,
2013-01-20 02:05:00,3.3,-2.0,29.50,NE,45,3.3,3.3,78,0.00,,,-99.99,VWS V12.07,2013-01-20 08:05:00,
2013-01-20 02:10:00,3.3,-2.0,29.50,West,270,0.0,3.3,78,0.00,,,-99.99,VWS V12.07,2013-01-20 08:10:00,
2013-01-20 02:15:00,3.3,-2.0,29.50,NNE,22,2.4,3.3,78,0.00,,,-99.99,VWS V12.07,2013-01-20 08:15:00,
2013-01-20 02:20:00,3.3,-2.0,29.50,West,270,0.4,2.4,78,0.00,,,-99.99,VWS V12.07,2013-01-20 08:20:00,
2013-01-20 02:25:00,3.3,-2.0,29.50,SW,225,3.3,3.3,78,0.00,,,-99.99,VWS V12.07,2013-01-20 08:25:00,
2013-01-20 02:30:00,3.3,-2.0,29.51,WSW,248,0.8,5.3,78,0.00,,,-99.99,VWS V12.07,2013-01-20 08:30:00,
2013-01-20 02:35:00,3.0,-2.3,29.51,NW,315,0.0,0.8,78,0.00,,,-99.99,VWS V12.07,2013-01-20 08:35:00,
2013-01-20 02:40:00,3.0,-2.3,29.52,West,270,2.9,2.9,78,0.00,,,-99.99,VWS V12.07,2013-01-20 08:40:00,
2013-01-20 02:45:00,3.0,-2.3,29.52,WSW,248,3.5,6.9,78,0.00,,,-99.99,VWS V12.07,2013-01-20 08:45:00,
2013-01-20 02:50:00,2.8,-2.5,29.52,NNE,22,0.8,3.5,78,0.00,,,-99.99,VWS V12.07,2013-01-20 08:50:00,
2013-01-20 02:55:00,2.8,-2.5,29.53,WSW,248,3.5,3.5,78,0.00,,,-99.99,VWS V12.07,2013-01-20 08:55:00,
2013-01-20 03:00:00,2.8,-2.5,29.53,North,0,4.9,4.9,78,0.00,,,-99.99,VWS V12.07,2013-01-20 09:00:00,
2013-01-20 03:05:00,2.8,-2.8,29.54,NW,315,4.4,4.9,77,0.00,,,-99.99,VWS V12.07,2013-01-20 09:05:00,
2013-01-20 03:10:00,2.8,-2.8,29.54,WSW,248,3.1,4.9,77,0.00,,,-99.99,VWS V12.07,2013-01-20 09:10:00,
2013-01-20 03:15:00,2.8,-2.8,29.54,NE,45,4.2,4.9,77,0.00,,,-99.99,VWS V12.07,2013-01-20 09:15:00,
2013-01-20 03:20:00,2.8,-2.8,29.54,WSW,248,0.0,4.2,77,0.00,,,-99.99,VWS V12.07,2013-01-20 09:20:00,
2013-01-20 03:25:00,2.8,-2.8,29.55,NNE,22,6.9,7.1,77,0.00,,,-99.99,VWS V12.07,2013-01-20 09:25:00,
2013-01-20 03:30:00,2.6,-3.0,29.55,NNW,338,2.0,7.1,77,0.00,,,-99.99,VWS V12.07,2013-01-20 09:30:00,
2013-01-20 03:35:00,2.4,-3.2,29.55,NW,315,0.6,2.0,77,0.00,,,-99.99,VWS V12.07,2013-01-20 09:35:00,
2013-01-20 03:40:00,2.4,-3.2,29.55,West,270,0.0,2.0,77,0.00,,,-99.99,VWS V12.07,2013-01-20 09:40:00,
2013-01-20 03:45:00,2.4,-3.2,29.55,NNE,22,0.0,4.0,77,0.00,,,-99.99,VWS V12.07,2013-01-20 09:45:00,
2013-01-20 03:50:00,2.3,-3.2,29.55,SW,225,0.0,3.5,77,0.00,,,-99.99,VWS V12.07,2013-01-20 09:50:00,
2013-01-20 03:55:00,1.9,-3.6,29.55,NW,315,2.9,3.5,77,0.00,,,-99.99,VWS V12.07,2013-01-20 09:55:00,
2013-01-20 04:00:00,1.5,-4.0,29.56,WNW,292,0.0,3.5,77,0.00,,,-99.99,VWS V12.07,2013-01-20 10:00:00,
2013-01-20 04:05:00,1.2,-4.3,29.56,West,270,0.0,0.0,77,0.00,,,-99.99,VWS V12.07,2013-01-20 10:05:00,
2013-01-20 04:10:00,1.2,-4.3,29.56,West,270,0.0,2.0,77,0.00,,,-99.99,VWS V12.07,2013-01-20 10:10:00,
2013-01-20 04:15:00,1.0,-4.5,29.56,West,270,0.0,2.0,77,0.00,,,-99.99,VWS V12.07,2013-01-20 10:15:00,
2013-01-20 04:20:00,0.8,-4.7,29.56,WSW,248,0.0,0.0,77,0.00,,,-99.99,VWS V12.07,2013-01-20 10:20:00,
2013-01-20 04:25:00,0.6,-4.9,29.57,WSW,248,0.0,0.0,77,0.00,,,-99.99,VWS V12.07,2013-01-20 10:25:00,
2013-01-20 04:30:00,0.6,-4.9,29.57,WSW,248,1.7,1.7,77,0.00,,,-99.99,VWS V12.07,2013-01-20 10:30:00,
2013-01-20 04:35:00,0.5,-5.0,29.57,West,270,2.0,2.4,77,0.00,,,-99.99,VWS V12.07,2013-01-20 10:35:00,
2013-01-20 04:40:00,0.5,-5.0,29.57,SSW,202,1.7,4.0,77,0.00,,,-99.99,VWS V12.07,2013-01-20 10:40:00,
2013-01-20 04:45:00,0.5,-5.0,29.58,West,270,0.0,4.0,77,0.00,,,-99.99,VWS V12.07,2013-01-20 10:45:00,
2013-01-20 04:50:00,0.3,-5.2,29.58,SW,225,1.5,1.5,77,0.00,,,-99.99,VWS V12.07,2013-01-20 10:50:00,
2013-01-20 04:55:00,0.3,-4.9,29.58,West,270,0.0,5.1,78,0.00,,,-99.99,VWS V12.07,2013-01-20 10:55:00,
2013-01-20 05:00:00,0.3,-4.9,29.58,SW,225,0.0,5.1,78,0.00,,,-99.99,VWS V12.07,2013-01-20 11:00:00,
2013-01-20 05:05:00,0.3,-4.9,29.59,SW,225,0.0,0.0,78,0.00,,,-99.99,VWS V12.07,2013-01-20 11:05:00,
2013-01-20 05:10:00,0.3,-4.9,29.59,West,270,3.1,3.1,78,0.00,,,-99.99,VWS V12.07,2013-01-20 11:10:00,
2013-01-20 05:15:00,0.1,-5.1,29.60,SW,225,0.8,3.1,78,0.00,,,-99.99,VWS V12.07,2013-01-20 11:15:00,
2013-01-20 05:20:00,0.1,-5.1,29.60,SW,225,0.0,1.3,78,0.00,,,-99.99,VWS V12.07,2013-01-20 11:20:00,
2013-01-20 05:25:00,-0.2,-5.4,29.60,SW,225,2.6,2.6,78,0.00,,,-99.99,VWS V12.07,2013-01-20 11:25:00,
2013-01-20 05:30:00,-0.2,-5.4,29.60,West,270,1.7,2.6,78,0.00,,,-99.99,VWS V12.07,2013-01-20 11:30:00,
2013-01-20 05:35:00,-0.5,-6.0,29.61,North,0,3.8,3.8,77,0.00,,,-99.99,VWS V12.07,2013-01-20 11:35:00,
2013-01-20 05:40:00,-0.5,-6.0,29.61,NE,45,2.0,3.8,77,0.00,,,-99.99,VWS V12.07,2013-01-20 11:40:00,
2013-01-20 05:45:00,-0.7,-6.2,29.61,West,270,0.0,7.8,77,0.00,,,-99.99,VWS V12.07,2013-01-20 11:45:00,
2013-01-20 05:50:00,-1.1,-6.6,29.62,West,270,1.7,1.7,77,0.00,,,-99.99,VWS V12.07,2013-01-20 11:50:00,
2013-01-20 06:00:00,-1.4,-6.8,29.62,SW,225,0.0,1.7,77,0.00,,,-99.99,VWS V12.07,2013-01-20 12:00:00,
2013-01-20 06:05:00,-1.6,-7.0,29.63,WNW,292,0.0,0.0,77,0.00,,,-99.99,VWS V12.07,2013-01-20 12:05:00,
2013-01-20 06:10:00,-1.8,-7.2,29.62,West,270,2.6,2.6,77,0.00,,,-99.99,VWS V12.07,2013-01-20 12:10:00,
2013-01-20 06:15:00,-2.0,-7.4,29.63,North,0,0.0,2.6,77,0.00,,,-99.99,VWS V12.07,2013-01-20 12:15:00,
2013-01-20 06:20:00,-2.3,-7.7,29.63,SSE,158,2.0,2.4,77,0.00,,,-99.99,VWS V12.07,2013-01-20 12:20:00,
2013-01-20 06:25:00,-2.3,-7.7,29.63,South,180,1.7,2.4,77,0.00,,,-99.99,VWS V12.07,2013-01-20 12:25:00,
2013-01-20 06:30:00,-2.3,-7.7,29.64,NW,315,0.0,2.4,77,0.00,,,-99.99,VWS V12.07,2013-01-20 12:30:00,
2013-01-20 06:35:00,-2.5,-7.9,29.64,NNW,338,0.0,0.0,77,0.00,,,-99.99,VWS V12.07,2013-01-20 12:35:00,
2013-01-20 06:45:00,-3.1,-8.5,29.64,WSW,248,0.0,3.8,77,0.00,,,-99.99,VWS V12.07,2013-01-20 12:45:00,
2013-01-20 06:55:00,-3.2,-8.6,29.65,NW,315,0.0,2.2,77,0.00,,,-99.99,VWS V12.07,2013-01-20 12:55:00,
2013-01-20 07:00:00,-3.4,-8.8,29.65,West,270,0.0,2.2,77,0.00,,,-99.99,VWS V12.07,2013-01-20 13:00:00,
2013-01-20 07:05:00,-3.4,-8.8,29.66,SSW,202,2.0,2.0,77,0.00,,,-99.99,VWS V12.07,2013-01-20 13:05:00,
2013-01-20 07:10:00,-3.6,-9.0,29.66,SW,225,0.0,2.0,77,0.00,,,-99.99,VWS V12.07,2013-01-20 13:10:00,
2013-01-20 07:15:00,-3.8,-9.2,29.67,NNE,22,0.0,5.8,77,0.00,,,-99.99,VWS V12.07,2013-01-20 13:15:00,
2013-01-20 07:20:00,-3.8,-9.2,29.67,WNW,292,6.0,6.0,77,0.00,,,-99.99,VWS V12.07,2013-01-20 13:20:00,
2013-01-20 07:25:00,-4.1,-9.5,29.67,NW,315,0.0,6.0,77,0.00,,,-99.99,VWS V12.07,2013-01-20 13:25:00,
2013-01-20 07:30:00,-4.1,-9.5,29.68,SSW,202,2.4,6.0,77,0.00,,,-99.99,VWS V12.07,2013-01-20 13:30:00,
2013-01-20 07:35:00,-4.1,-9.5,29.68,SW,225,3.3,3.3,77,0.00,,,-99.99,VWS V12.07,2013-01-20 13:35:00,
2013-01-20 07:45:00,-4.3,-9.7,29.68,SW,225,4.6,4.6,77,0.00,,,-99.99,VWS V12.07,2013-01-20 13:45:00,
2013-01-20 07:55:00,-4.3,-9.7,29.69,West,270,3.3,8.5,77,0.00,,,-99.99,VWS V12.07,2013-01-20 13:55:00,
2013-01-20 08:00:00,-4.7,-10.1,29.68,NE,45,0.0,8.5,77,0.00,,,-99.99,VWS V12.07,2013-01-20 14:00:00,
2013-01-20 08:05:00,-4.7,-10.1,29.69,SSW,202,0.6,0.6,77,0.00,,,-99.99,VWS V12.07,2013-01-20 14:05:00,
2013-01-20 08:10:00,-4.7,-10.1,29.69,WNW,292,0.0,0.8,77,0.00,,,-99.99,VWS V12.07,2013-01-20 14:10:00,
2013-01-20 08:20:00,-4.7,-10.1,29.69,North,0,0.0,4.2,77,0.00,,,-99.99,VWS V12.07,2013-01-20 14:20:00,
2013-01-20 08:25:00,-4.7,-10.1,29.69,West,270,2.2,4.2,77,0.00,,,-99.99,VWS V12.07,2013-01-20 14:25:00,
2013-01-20 08:35:00,-4.5,-9.9,29.69,NNE,22,6.2,6.2,77,0.00,,,-99.99,VWS V12.07,2013-01-20 14:35:00,
2013-01-20 08:40:00,-4.3,-9.7,29.69,WNW,292,4.2,6.2,77,0.00,,,-99.99,VWS V12.07,2013-01-20 14:40:00,
2013-01-20 08:50:00,-4.1,-9.5,29.70,NW,315,2.0,4.9,77,0.00,,,-99.99,VWS V12.07,2013-01-20 14:50:00,
2013-01-20 08:55:00,-4.1,-9.5,29.69,WSW,248,3.1,4.9,77,0.00,,,-99.99,VWS V12.07,2013-01-20 14:55:00,
2013-01-20 09:05:00,-3.4,-8.5,29.70,WSW,248,0.0,0.0,78,0.00,,,-99.99,VWS V12.07,2013-01-20 15:05:00,
2013-01-20 09:10:00,-3.2,-8.3,29.70,NNE,22,3.5,5.1,78,0.00,,,-99.99,VWS V12.07,2013-01-20 15:10:00,
2013-01-20 09:15:00,-2.9,-8.3,29.70,North,0,0.0,5.1,77,0.00,,,-99.99,VWS V12.07,2013-01-20 15:15:00,
2013-01-20 09:20:00,-2.5,-7.9,29.70,WSW,248,0.0,2.0,77,0.00,,,-99.99,VWS V12.07,2013-01-20 15:20:00,
2013-01-20 09:25:00,-2.2,-7.6,29.70,North,0,0.0,2.0,77,0.00,,,-99.99,VWS V12.07,2013-01-20 15:25:00,
2013-01-20 09:30:00,-2.0,-7.4,29.70,NW,315,0.0,2.0,77,0.00,,,-99.99,VWS V12.07,2013-01-20 15:30:00,
2013-01-20 09:40:00,-1.4,-6.8,29.69,NE,45,4.0,4.0,77,0.00,,,-99.99,VWS V12.07,2013-01-20 15:40:00,
2013-01-20 09:50:00,-1.1,-6.6,29.70,North,0,2.6,4.4,77,0.00,,,-99.99,VWS V12.07,2013-01-20 15:50:00,
2013-01-20 09:55:00,-0.7,-6.2,29.70,West,270,4.0,4.9,77,0.00,,,-99.99,VWS V12.07,2013-01-20 15:55:00,
2013-01-20 10:00:00,-0.5,-6.2,29.70,NNE,22,0.0,4.9,76,0.00,,,-99.99,VWS V12.07,2013-01-20 16:00:00,
2013-01-20 10:05:00,-0.2,-5.9,29.71,SW,225,3.5,3.5,76,0.00,,,-99.99,VWS V12.07,2013-01-20 16:05:00,
2013-01-20 10:10:00,0.1,-5.7,29.70,South,180,1.5,3.5,76,0.00,,,-99.99,VWS V12.07,2013-01-20 16:10:00,
2013-01-20 10:15:00,0.3,-5.5,29.70,WNW,292,0.0,3.5,76,0.00,,,-99.99,VWS V12.07,2013-01-20 16:15:00,
2013-01-20 10:20:00,0.5,-5.3,29.69,SW,225,1.5,1.5,76,0.00,,,-99.99,VWS V12.07,2013-01-20 16:20:00,
2013-01-20 10:25:00,1.0,-5.1,29.70,SSW,202,3.1,3.1,75,0.00,,,-99.99,VWS V12.07,2013-01-20 16:25:00,
2013-01-20 10:30:00,1.2,-4.9,29.70,WNW,292,0.0,5.8,75,0.00,,,-99.99,VWS V12.07,2013-01-20 16:30:00,
2013-01-20 10:35:00,1.2,-4.9,29.71,SSW,202,3.8,3.8,75,0.00,,,-99.99,VWS V12.07,2013-01-20 16:35:00,
2013-01-20 10:40:00,1.5,-4.6,29.71,SW,225,0.8,3.8,75,0.00,,,-99.99,VWS V12.07,2013-01-20 16:40:00,
2013-01-20 10:45:00,1.9,-4.5,29.71,West,270,0.6,3.8,74,0.00,,,-99.99,VWS V12.07,2013-01-20 16:45:00,
2013-01-20 10:50:00,2.4,-3.7,29.71,NNE,22,6.9,6.9,75,0.00,,,-99.99,VWS V12.07,2013-01-20 16:50:00,
2013-01-20 10:55:00,2.8,-3.6,29.72,SW,225,5.5,6.9,74,0.00,,,-99.99,VWS V12.07,2013-01-20 16:55:00,
2013-01-20 11:00:00,3.0,-3.4,29.71,NNE,22,2.4,6.9,74,0.00,,,-99.99,VWS V12.07,2013-01-20 17:00:00,
2013-01-20 11:05:00,3.3,-3.1,29.72,SW,225,4.6,4.6,74,0.00,,,-99.99,VWS V12.07,2013-01-20 17:05:00,
2013-01-20 11:10:00,3.5,-3.2,29.71,West,270,0.6,4.6,73,0.00,,,-99.99,VWS V12.07,2013-01-20 17:10:00,
2013-01-20 11:15:00,3.7,-3.0,29.71,NW,315,0.0,4.6,73,0.00,,,-99.99,VWS V12.07,2013-01-20 17:15:00,
2013-01-20 11:20:00,3.9,-2.8,29.71,NNW,338,0.0,0.0,73,0.00,,,-99.99,VWS V12.07,2013-01-20 17:20:00,
2013-01-20 11:25:00,3.9,-2.8,29.71,West,270,0.0,3.1,73,0.00,,,-99.99,VWS V12.07,2013-01-20 17:25:00,
2013-01-20 11:30:00,4.1,-2.9,29.71,West,270,3.5,5.5,72,0.00,,,-99.99,VWS V12.07,2013-01-20 17:30:00,
2013-01-20 11:35:00,4.1,-2.9,29.71,North,0,0.0,3.5,72,0.00,,,-99.99,VWS V12.07,2013-01-20 17:35:00,
2013-01-20 11:40:00,4.1,-2.9,29.70,WSW,248,0.0,3.5,72,0.00,,,-99.99,VWS V12.07,2013-01-20 17:40:00,
2013-01-20 11:45:00,4.2,-2.8,29.70,WSW,248,1.7,3.5,72,0.00,,,-99.99,VWS V12.07,2013-01-20 17:45:00,
2013-01-20 11:50:00,4.2,-3.1,29.70,North,0,0.0,2.4,71,0.00,,,-99.99,VWS V12.07,2013-01-20 17:50:00,
2013-01-20 11:55:00,4.1,-3.2,29.70,NNW,338,0.0,2.4,71,0.00,,,-99.99,VWS V12.07,2013-01-20 17:55:00,
2013-01-20 12:00:00,4.2,-3.1,29.70,SSW,202,6.9,6.9,71,0.00,,,-99.99,VWS V12.07,2013-01-20 18:00:00,
2013-01-20 12:05:00,4.2,-3.1,29.70,NW,315,4.4,6.9,71,0.00,,,-99.99,VWS V12.07,2013-01-20 18:05:00,
2013-01-20 12:10:00,4.1,-3.2,29.69,SSW,202,1.7,6.9,71,0.00,,,-99.99,VWS V12.07,2013-01-20 18:10:00,
2013-01-20 12:15:00,4.2,-3.1,29.70,WSW,248,4.0,6.9,71,0.00,,,-99.99,VWS V12.07,2013-01-20 18:15:00,
2013-01-20 12:20:00,4.4,-2.9,29.69,North,0,4.4,4.4,71,0.00,,,-99.99,VWS V12.07,2013-01-20 18:20:00,
2013-01-20 12:25:00,4.8,-2.5,29.69,NNW,338,1.1,4.4,71,0.00,,,-99.99,VWS V12.07,2013-01-20 18:25:00,
2013-01-20 12:30:00,4.8,-2.8,29.69,SSW,202,0.0,4.4,70,0.00,,,-99.99,VWS V12.07,2013-01-20 18:30:00,
2013-01-20 12:35:00,4.8,-2.5,29.70,West,270,3.8,3.8,71,0.00,,,-99.99,VWS V12.07,2013-01-20 18:35:00,
2013-01-20 12:40:00,5.0,-2.6,29.69,West,270,3.1,3.8,70,0.00,,,-99.99,VWS V12.07,2013-01-20 18:40:00,
2013-01-20 12:45:00,5.1,-2.5,29.69,West,270,2.0,6.2,70,0.00,,,-99.99,VWS V12.07,2013-01-20 18:45:00,
2013-01-20 12:50:00,5.3,-2.3,29.70,NW,315,7.3,7.3,70,0.00,,,-99.99,VWS V12.07,2013-01-20 18:50:00,
2013-01-20 12:55:00,5.3,-2.3,29.70,WNW,292,2.4,7.3,70,0.00,,,-99.99,VWS V12.07,2013-01-20 18:55:00,
2013-01-20 13:00:00,5.3,-2.3,29.69,WSW,248,0.6,7.3,70,0.00,,,-99.99,VWS V12.07,2013-01-20 19:00:00,
2013-01-20 13:05:00,5.3,-2.3,29.70,West,270,0.0,0.6,70,0.00,,,-99.99,VWS V12.07,2013-01-20 19:05:00,
2013-01-20 13:10:00,5.1,-2.5,29.70,South,180,2.6,2.6,70,0.00,,,-99.99,VWS V12.07,2013-01-20 19:10:00,
2013-01-20 13:15:00,5.1,-2.8,29.70,WSW,248,1.7,2.6,69,0.00,,,-99.99,VWS V12.07,2013-01-20 19:15:00,
2013-01-20 13:20:00,5.5,-2.5,29.70,SW,225,1.3,4.4,69,0.00,,,-99.99,VWS V12.07,2013-01-20 19:20:00,
2013-01-20 13:25:00,5.5,-2.2,29.70,NW,315,0.0,4.4,70,0.00,,,-99.99,VWS V12.07,2013-01-20 19:25:00,
2013-01-20 13:30:00,5.7,-2.0,29.70,SW,225,5.1,5.1,70,0.00,,,-99.99,VWS V12.07,2013-01-20 19:30:00,
2013-01-20 13:35:00,5.9,-1.8,29.70,WSW,248,2.0,5.1,70,0.00,,,-99.99,VWS V12.07,2013-01-20 19:35:00,
2013-01-20 13:45:00,6.0,-2.0,29.69,NW,315,1.3,5.1,69,0.00,,,-99.99,VWS V12.07,2013-01-20 19:45:00,
2013-01-20 13:50:00,5.9,-2.1,29.69,WSW,248,0.0,1.3,69,0.00,,,-99.99,VWS V12.07,2013-01-20 19:50:00,
2013-01-20 13:55:00,5.7,-2.3,29.68,West,270,0.0,2.4,69,0.00,,,-99.99,VWS V12.07,2013-01-20 19:55:00,
2013-01-20 14:00:00,5.7,-2.6,29.69,SW,225,3.5,3.5,68,0.00,,,-99.99,VWS V12.07,2013-01-20 20:00:00,
2013-01-20 14:05:00,5.5,-2.8,29.68,SW,225,4.9,4.9,68,0.00,,,-99.99,VWS V12.07,2013-01-20 20:05:00,
2013-01-20 14:10:00,5.5,-2.5,29.68,SSW,202,0.0,5.3,69,0.00,,,-99.99,VWS V12.07,2013-01-20 20:10:00,
2013-01-20 14:15:00,5.5,-2.5,29.68,NW,315,1.3,5.3,69,0.00,,,-99.99,VWS V12.07,2013-01-20 20:15:00,
2013-01-20 14:20:00,5.5,-2.5,29.68,WSW,248,1.5,1.5,69,0.00,,,-99.99,VWS V12.07,2013-01-20 20:20:00,
2013-01-20 14:25:00,5.5,-2.8,29.69,SSW,202,0.0,4.0,68,0.00,,,-99.99,VWS V12.07,2013-01-20 20:25:00,
2013-01-20 14:30:00,5.5,-2.8,29.69,WSW,248,0.0,4.0,68,0.00,,,-99.99,VWS V12.07,2013-01-20 20:30:00,
2013-01-20 14:35:00,5.3,-3.0,29.69,WSW,248,0.0,0.0,68,0.00,,,-99.99,VWS V12.07,2013-01-20 20:35:00,
2013-01-20 14:45:00,5.1,-2.8,29.69,SW,225,0.0,0.8,69,0.00,,,-99.99,VWS V12.07,2013-01-20 20:45:00,
2013-01-20 14:50:00,5.1,-2.8,29.68,NW,315,0.0,2.0,69,0.00,,,-99.99,VWS V12.07,2013-01-20 20:50:00,
2013-01-20 14:55:00,5.1,-2.8,29.68,NW,315,2.0,3.5,69,0.00,,,-99.99,VWS V12.07,2013-01-20 20:55:00,
2013-01-20 15:00:00,5.3,-3.0,29.69,NW,315,0.0,3.5,68,0.00,,,-99.99,VWS V12.07,2013-01-20 21:00:00,
2013-01-20 15:05:00,5.3,-3.0,29.68,SW,225,5.3,5.3,68,0.00,,,-99.99,VWS V12.07,2013-01-20 21:05:00,
2013-01-20 15:10:00,5.1,-3.1,29.68,SW,225,1.1,5.3,68,0.00,,,-99.99,VWS V12.07,2013-01-20 21:10:00,
2013-01-20 15:15:00,5.1,-3.1,29.69,SW,225,0.0,5.3,68,0.00,,,-99.99,VWS V12.07,2013-01-20 21:15:00,
2013-01-20 15:20:00,5.1,-3.5,29.68,SW,225,7.3,7.3,67,0.00,,,-99.99,VWS V12.07,2013-01-20 21:20:00,
2013-01-20 15:25:00,4.8,-3.7,29.68,SW,225,4.0,7.3,67,0.00,,,-99.99,VWS V12.07,2013-01-20 21:25:00,
2013-01-20 15:30:00,4.8,-3.7,29.68,SSW,202,0.0,7.3,67,0.00,,,-99.99,VWS V12.07,2013-01-20 21:30:00,
2013-01-20 15:35:00,4.6,-3.9,29.68,WSW,248,1.3,6.0,67,0.00,,,-99.99,VWS V12.07,2013-01-20 21:35:00,
2013-01-20 15:40:00,4.4,-4.1,29.68,SW,225,0.0,6.0,67,0.00,,,-99.99,VWS V12.07,2013-01-20 21:40:00,
2013-01-20 15:45:00,4.2,-4.3,29.68,NNE,22,3.3,6.0,67,0.00,,,-99.99,VWS V12.07,2013-01-20 21:45:00,
2013-01-20 15:50:00,4.2,-4.3,29.68,West,270,1.7,3.3,67,0.00,,,-99.99,VWS V12.07,2013-01-20 21:50:00,
2013-01-20 15:55:00,4.2,-4.3,29.68,WSW,248,0.0,3.5,67,0.00,,,-99.99,VWS V12.07,2013-01-20 21:55:00,
2013-01-20 16:00:00,4.4,-4.1,29.68,SSW,202,0.0,3.5,67,0.00,,,-99.99,VWS V12.07,2013-01-20 22:00:00,
2013-01-20 16:05:00,4.8,-3.4,29.69,SW,225,1.3,1.3,68,0.00,,,-99.99,VWS V12.07,2013-01-20 22:05:00,
2013-01-20 16:10:00,5.0,-3.5,29.68,West,270,0.0,1.3,67,0.00,,,-99.99,VWS V12.07,2013-01-20 22:10:00,
2013-01-20 16:15:00,5.0,-3.5,29.68,West,270,0.0,1.3,67,0.00,,,-99.99,VWS V12.07,2013-01-20 22:15:00,
2013-01-20 16:20:00,4.8,-3.7,29.69,SW,225,2.0,2.0,67,0.00,,,-99.99,VWS V12.07,2013-01-20 22:20:00,
2013-01-20 16:25:00,4.2,-4.3,29.68,WSW,248,0.0,2.0,67,0.00,,,-99.99,VWS V12.07,2013-01-20 22:25:00,
2013-01-20 16:30:00,4.1,-4.4,29.68,WSW,248,0.0,2.0,67,0.00,,,-99.99,VWS V12.07,2013-01-20 22:30:00,
2013-01-20 16:40:00,3.3,-5.2,29.68,SW,225,4.6,4.6,67,0.00,,,-99.99,VWS V12.07,2013-01-20 22:40:00,
2013-01-20 16:45:00,3.3,-5.2,29.68,SSW,202,5.1,5.1,67,0.00,,,-99.99,VWS V12.07,2013-01-20 22:45:00,
2013-01-20 16:50:00,3.0,-5.5,29.67,WNW,292,0.0,5.1,67,0.00,,,-99.99,VWS V12.07,2013-01-20 22:50:00,
2013-01-20 16:55:00,2.8,-5.7,29.68,WSW,248,0.0,5.1,67,0.00,,,-99.99,VWS V12.07,2013-01-20 22:55:00,
2013-01-20 17:00:00,2.4,-6.0,29.68,WSW,248,0.0,5.1,67,0.00,,,-99.99,VWS V12.07,2013-01-20 23:00:00,
2013-01-20 17:05:00,2.3,-6.1,29.67,WSW,248,0.0,0.0,67,0.00,,,-99.99,VWS V12.07,2013-01-20 23:05:00,
2013-01-20 17:15:00,1.5,-6.9,29.67,WSW,248,0.0,0.0,67,0.00,,,-99.99,VWS V12.07,2013-01-20 23:15:00,
2013-01-20 17:20:00,1.2,-7.2,29.68,WSW,248,0.0,0.0,67,0.00,,,-99.99,VWS V12.07,2013-01-20 23:20:00,
2013-01-20 17:25:00,0.8,-7.3,29.68,WSW,248,0.0,0.0,68,0.00,,,-99.99,VWS V12.07,2013-01-20 23:25:00,
2013-01-20 17:30:00,0.5,-7.6,29.68,WSW,248,0.0,0.0,68,0.00,,,-99.99,VWS V12.07,2013-01-20 23:30:00,
2013-01-20 17:35:00,0.3,-7.8,29.68,WSW,248,0.0,0.0,68,0.00,,,-99.99,VWS V12.07,2013-01-20 23:35:00,
2013-01-20 17:40:00,-0.2,-8.2,29.68,WSW,248,0.0,0.0,68,0.00,,,-99.99,VWS V12.07,2013-01-20 23:40:00,
2013-01-20 17:45:00,-0.5,-8.5,29.68,WSW,248,0.0,0.0,68,0.00,,,-99.99,VWS V12.07,2013-01-20 23:45:00,
2013-01-20 17:50:00,-0.7,-8.7,29.67,WSW,248,0.0,0.0,68,0.00,,,-99.99,VWS V12.07,2013-01-20 23:50:00,
2013-01-20 17:55:00,-1.1,-8.8,29.67,WSW,248,0.0,0.0,69,0.00,,,-99.99,VWS V12.07,2013-01-20 23:55:00,
2013-01-20 18:00:00,-1.4,-9.1,29.67,WSW,248,0.0,0.0,69,0.00,,,-99.99,VWS V12.07,2013-01-21 00:00:00,
2013-01-20 18:05:00,-1.6,-9.3,29.67,WSW,248,0.0,0.0,69,0.00,,,-99.99,VWS V12.07,2013-01-21 00:05:00,
2013-01-20 18:10:00,-2.2,-9.9,29.67,WSW,248,0.0,0.0,69,0.00,,,-99.99,VWS V12.07,2013-01-21 00:10:00,
2013-01-20 18:15:00,-2.3,-9.9,29.67,WSW,248,0.0,0.0,69,0.00,,,-99.99,VWS V12.07,2013-01-21 00:15:00,
2013-01-20 18:20:00,-2.5,-10.1,29.67,WSW,248,0.0,0.0,69,0.00,,,-99.99,VWS V12.07,2013-01-21 00:20:00,
2013-01-20 18:25:00,-3.1,-10.7,29.67,WSW,248,0.0,0.0,69,0.00,,,-99.99,VWS V12.07,2013-01-21 00:25:00,
2013-01-20 18:30:00,-3.1,-10.4,29.67,WSW,248,0.0,0.0,70,0.00,,,-99.99,VWS V12.07,2013-01-21 00:30:00,
2013-01-20 18:35:00,-3.2,-10.8,29.67,WSW,248,0.0,0.0,69,0.00,,,-99.99,VWS V12.07,2013-01-21 00:35:00,
2013-01-20 18:40:00,-3.2,-10.5,29.67,WSW,248,0.0,0.0,70,0.00,,,-99.99,VWS V12.07,2013-01-21 00:40:00,
2013-01-20 18:45:00,-3.2,-10.5,29.67,WSW,248,0.0,0.0,70,0.00,,,-99.99,VWS V12.07,2013-01-21 00:45:00,
2013-01-20 18:50:00,-3.2,-10.5,29.67,SSW,202,5.8,5.8,70,0.00,,,-99.99,VWS V12.07,2013-01-21 00:50:00,
2013-01-20 18:55:00,-3.1,-10.4,29.67,SW,225,0.0,5.8,70,0.00,,,-99.99,VWS V12.07,2013-01-21 00:55:00,
2013-01-20 19:00:00,-3.1,-10.4,29.67,SW,225,0.0,5.8,70,0.00,,,-99.99,VWS V12.07,2013-01-21 01:00:00,
2013-01-20 19:05:00,-3.1,-10.1,29.67,SW,225,0.0,0.0,71,0.00,,,-99.99,VWS V12.07,2013-01-21 01:05:00,
2013-01-20 19:10:00,-3.2,-10.2,29.67,SW,225,0.0,0.0,71,0.00,,,-99.99,VWS V12.07,2013-01-21 01:10:00,
2013-01-20 19:15:00,-3.2,-10.2,29.67,SW,225,0.0,0.0,71,0.00,,,-99.99,VWS V12.07,2013-01-21 01:15:00,
2013-01-20 19:20:00,-3.2,-10.2,29.67,SW,225,0.0,0.0,71,0.00,,,-99.99,VWS V12.07,2013-01-21 01:20:00,
2013-01-20 19:25:00,-3.6,-10.6,29.67,SW,225,0.0,0.0,71,0.00,,,-99.99,VWS V12.07,2013-01-21 01:25:00,
2013-01-20 19:30:00,-3.8,-10.8,29.67,SW,225,0.0,0.0,71,0.00,,,-99.99,VWS V12.07,2013-01-21 01:30:00,
2013-01-20 19:35:00,-3.8,-10.8,29.67,SW,225,0.0,0.0,71,0.00,,,-99.99,VWS V12.07,2013-01-21 01:35:00,
2013-01-20 19:40:00,-4.1,-11.4,29.67,SW,225,0.0,0.0,70,0.00,,,-99.99,VWS V12.07,2013-01-21 01:40:00,
2013-01-20 19:45:00,-4.3,-11.6,29.67,SW,225,0.0,0.0,70,0.00,,,-99.99,VWS V12.07,2013-01-21 01:45:00,
2013-01-20 19:50:00,-4.7,-11.7,29.67,SW,225,0.0,0.0,71,0.00,,,-99.99,VWS V12.07,2013-01-21 01:50:00,
2013-01-20 20:00:00,-4.9,-11.9,29.67,SW,225,0.0,0.0,71,0.00,,,-99.99,VWS V12.07,2013-01-21 02:00:00,
2013-01-20 20:05:00,-5.0,-12.0,29.67,SW,225,0.0,0.0,71,0.00,,,-99.99,VWS V12.07,2013-01-21 02:05:00,
2013-01-20 20:10:00,-5.2,-12.2,29.67,SW,225,0.0,0.0,71,0.00,,,-99.99,VWS V12.07,2013-01-21 02:10:00,
2013-01-20 20:15:00,-5.4,-12.4,29.67,SW,225,0.0,0.0,71,0.00,,,-99.99,VWS V12.07,2013-01-21 02:15:00,
2013-01-20 20:20:00,-5.6,-12.6,29.67,SW,225,0.0,0.0,71,0.00,,,-99.99,VWS V12.07,2013-01-21 02:20:00,
2013-01-20 20:25:00,-5.8,-12.8,29.67,West,270,0.0,0.0,71,0.00,,,-99.99,VWS V12.07,2013-01-21 02:25:00,
2013-01-20 20:30:00,-5.9,-12.9,29.67,West,270,0.0,0.0,71,0.00,,,-99.99,VWS V12.07,2013-01-21 02:30:00,
2013-01-20 20:35:00,-5.9,-12.9,29.67,West,270,0.0,0.0,71,0.00,,,-99.99,VWS V12.07,2013-01-21 02:35:00,
2013-01-20 20:45:00,-5.9,-12.6,29.67,West,270,0.0,0.0,72,0.00,,,-99.99,VWS V12.07,2013-01-21 02:45:00,
2013-01-20 20:50:00,-6.1,-12.8,29.67,West,270,0.0,0.0,72,0.00,,,-99.99,VWS V12.07,2013-01-21 02:50:00,
2013-01-20 20:55:00,-6.1,-12.8,29.67,West,270,0.0,0.0,72,0.00,,,-99.99,VWS V12.07,2013-01-21 02:55:00,
2013-01-20 21:00:00,-6.3,-13.0,29.66,West,270,0.0,0.0,72,0.00,,,-99.99,VWS V12.07,2013-01-21 03:00:00,
2013-01-20 21:05:00,-6.3,-13.0,29.66,West,270,0.0,0.0,72,0.00,,,-99.99,VWS V12.07,2013-01-21 03:05:00,
2013-01-20 21:10:00,-6.5,-13.1,29.66,West,270,0.0,0.0,72,0.00,,,-99.99,VWS V12.07,2013-01-21 03:10:00,
2013-01-20 21:15:00,-6.5,-13.1,29.66,West,270,0.0,0.0,72,0.00,,,-99.99,VWS V12.07,2013-01-21 03:15:00,
2013-01-20 21:20:00,-6.5,-13.1,29.66,West,270,0.0,0.0,72,0.00,,,-99.99,VWS V12.07,2013-01-21 03:20:00,
2013-01-20 21:25:00,-6.5,-13.1,29.66,West,270,0.0,0.0,72,0.00,,,-99.99,VWS V12.07,2013-01-21 03:25:00,
2013-01-20 21:30:00,-6.3,-13.0,29.66,West,270,0.0,0.0,72,0.00,,,-99.99,VWS V12.07,2013-01-21 03:30:00,
2013-01-20 21:35:00,-6.3,-13.0,29.65,West,270,0.0,0.0,72,0.00,,,-99.99,VWS V12.07,2013-01-21 03:35:00,
2013-01-20 21:40:00,-6.1,-12.8,29.65,West,270,0.0,0.0,72,0.00,,,-99.99,VWS V12.07,2013-01-21 03:40:00,
2013-01-20 21:45:00,-6.1,-12.8,29.65,West,270,0.0,0.0,72,0.00,,,-99.99,VWS V12.07,2013-01-21 03:45:00,
2013-01-20 21:50:00,-6.1,-12.8,29.65,West,270,0.0,0.0,72,0.00,,,-99.99,VWS V12.07,2013-01-21 03:50:00,
2013-01-20 21:55:00,-5.9,-12.6,29.65,West,270,0.0,0.0,72,0.00,,,-99.99,VWS V12.07,2013-01-21 03:55:00,
2013-01-20 22:00:00,-5.9,-12.3,29.65,West,270,0.0,0.0,73,0.00,,,-99.99,VWS V12.07,2013-01-21 04:00:00,
2013-01-20 22:05:00,-5.9,-12.3,29.64,West,270,0.0,0.0,73,0.00,,,-99.99,VWS V12.07,2013-01-21 04:05:00,
2013-01-20 22:15:00,-5.9,-12.3,29.64,West,270,0.0,0.0,73,0.00,,,-99.99,VWS V12.07,2013-01-21 04:15:00,
2013-01-20 22:20:00,-5.9,-12.3,29.64,West,270,0.0,0.0,73,0.00,,,-99.99,VWS V12.07,2013-01-21 04:20:00,
2013-01-20 22:25:00,-5.9,-12.3,29.64,West,270,0.0,0.0,73,0.00,,,-99.99,VWS V12.07,2013-01-21 04:25:00,
2013-01-20 22:30:00,-5.9,-12.3,29.63,West,270,0.0,0.0,73,0.00,,,-99.99,VWS V12.07,2013-01-21 04:30:00,
2013-01-20 22:35:00,-6.1,-12.5,29.63,West,270,0.0,0.0,73,0.00,,,-99.99,VWS V12.07,2013-01-21 04:35:00,
2013-01-20 22:40:00,-6.5,-12.9,29.63,West,270,0.0,0.0,73,0.00,,,-99.99,VWS V12.07,2013-01-21 04:40:00,
2013-01-20 22:45:00,-6.7,-13.1,29.63,West,270,0.0,0.0,73,0.00,,,-99.99,VWS V12.07,2013-01-21 04:45:00,
2013-01-20 22:50:00,-6.8,-13.2,29.63,West,270,0.0,0.0,73,0.00,,,-99.99,VWS V12.07,2013-01-21 04:50:00,
2013-01-20 22:55:00,-7.0,-13.4,29.63,West,270,0.0,0.0,73,0.00,,,-99.99,VWS V12.07,2013-01-21 04:55:00,
2013-01-20 23:05:00,-7.4,-13.8,29.63,West,270,0.0,0.0,73,0.00,,,-99.99,VWS V12.07,2013-01-21 05:05:00,
2013-01-20 23:10:00,-7.4,-13.8,29.62,West,270,0.0,0.0,73,0.00,,,-99.99,VWS V12.07,2013-01-21 05:10:00,
2013-01-20 23:15:00,-7.4,-13.8,29.62,West,270,0.0,0.0,73,0.00,,,-99.99,VWS V12.07,2013-01-21 05:15:00,
2013-01-20 23:20:00,-7.4,-13.8,29.62,West,270,0.0,0.0,73,0.00,,,-99.99,VWS V12.07,2013-01-21 05:20:00,
2013-01-20 23:25:00,-7.4,-13.8,29.62,West,270,0.0,0.0,73,0.00,,,-99.99,VWS V12.07,2013-01-21 05:25:00,
2013-01-20 23:30:00,-7.4,-13.5,29.62,SW,225,0.0,0.0,74,0.00,,,-99.99,VWS V12.07,2013-01-21 05:30:00,
2013-01-20 23:35:00,-7.4,-13.5,29.62,SW,225,0.0,0.0,74,0.00,,,-99.99,VWS V12.07,2013-01-21 05:35:00,
2013-01-20 23:40:00,-7.4,-13.5,29.62,SW,225,3.3,3.3,74,0.00,,,-99.99,VWS V12.07,2013-01-21 05:40:00,
2013-01-20 23:45:00,-7.4,-13.5,29.62,SW,225,0.0,3.3,74,0.00,,,-99.99,VWS V12.07,2013-01-21 05:45:00,
2013-01-20 23:50:00,-7.4,-13.5,29.62,WSW,248,0.0,0.0,74,0.00,,,-99.99,VWS V12.07,2013-01-21 05:50:00,
2013-01-20 23:55:00,-7.2,-13.3,29.61,WSW,248,0.0,0.0,74,0.00,,,-99.99,VWS V12.07,2013-01-21 05:55:00,